Total_Precipitation_Accumulation
0.12 0.10 0.09 0.08 0.06 0.05 0.04 0.03 0.02 0.02 0.01 0.01 0.00 0.00 0.00 0.00 0.00 0.00 0.00 0.00 0.01 0.01 0.02 0.02 0.03 0.04 0.05 0.05 0.05 0.05 0.06 0.09 0.11 0.05 0.02 0.02 0.04 0.06 0.07 0.10 0.09 0.10 0.10
0.07 0.05 0.05 0.04 0.03 0.03 0.02 0.02 0.01 0.01 0.01 0.00 0.00 0.00 0.00 0.00 0.01 0.01 0.01 0.02 0.03 0.03 0.03 0.04 0.04 0.04 0.06 0.05 0.05 0.05 0.05 0.07 0.10 0.09 0.06 0.05 0.07 0.09 0.11 0.11 0.07 0.06 0.09
0.05 0.03 0.03 0.02 0.02 0.02 0.02 0.01 0.01 0.01 0.01 0.01 0.01 0.01 0.01 0.01 0.01 0.01 0.02 0.02 0.02 0.03 0.03 0.03 0.03 0.04 0.04 0.04 0.05 0.06 0.07 0.08 0.13 0.16 0.13 0.11 0.09 0.08 0.10 0.09 0.09 0.13 0.11
0.03 0.03 0.03 0.03 0.03 0.03 0.03 0.02 0.02 0.02 0.02 0.02 0.02 0.02 0.02 0.01 0.01 0.01 0.01 0.01 0.01 0.01 0.01 0.02 0.02 0.02 0.03 0.06 0.07 0.09 0.12 0.14 0.16 0.18 0.15 0.11 0.09 0.08 0.11 0.10 0.11 0.13 0.13
0.05 0.05 0.05 0.05 0.05 0.05 0.05 0.05 0.04 0.04 0.03 0.03 0.02 0.01 0.01 0.00 0.00 0.00 0.00 0.00 0.00 0.00 0.01 0.01 0.01 0.02 0.04 0.09 0.11 0.14 0.18 0.20 0.20 0.20 0.17 0.13 0.09 0.08 0.10 0.12 0.15 0.14 0.10
0.09 0.09 0.09 0.09 0.09 0.08 0.07 0.06 0.05 0.03 0.02 0.01 0.00 0.00 0.00 0.00 0.00 0.00 0.00 0.00 0.00 0.01 0.02 0.02 0.01 0.01 0.03 0.06 0.09 0.13 0.19 0.23 0.22 0.22 0.19 0.16 0.11 0.12 0.16 0.20 0.25 0.22 0.16
0.12 0.12 0.11 0.10 0.09 0.07 0.05 0.03 0.01 0.01 0.00 0.00 0.00 0.00 0.00 0.00 0.00 0.00 0.00 0.00 0.01 0.02 0.03 0.04 0.03 0.02 0.04 0.07 0.07 0.08 0.09 0.10 0.17 0.24 0.25 0.20 0.19 0.22 0.32 0.36 0.32 0.30 0.25
0.12 0.11 0.09 0.07 0.05 0.03 0.01 0.01 0.00 0.00 0.00 0.00 0.01 0.00 0.01 0.01 0.00 0.00 0.00 0.00 0.01 0.02 0.03 0.04 0.05 0.05 0.06 0.07 0.06 0.05 0.04 0.07 0.13 0.21 0.28 0.30 0.32 0.35 0.43 0.46 0.43 0.38 0.29
0.10 0.07 0.05 0.03 0.02 0.01 0.00 0.00 0.00 0.00 0.00 0.01 0.00 0.01 0.01 0.02 0.00 0.00 0.00 0.01 0.01 0.01 0.02 0.02 0.04 0.06 0.07 0.09 0.07 0.07 0.07 0.08 0.15 0.30 0.41 0.47 0.49 0.51 0.51 0.49 0.47 0.42 0.35
0.07 0.04 0.02 0.01 0.01 0.00 0.00 0.00 0.00 0.00 0.01 0.00 0.00 0.01 0.02 0.04 0.01 0.00 0.01 0.01 0.02 0.01 0.01 0.02 0.04 0.07 0.09 0.09 0.07 0.09 0.13 0.15 0.27 0.46 0.55 0.57 0.52 0.51 0.51 0.49 0.45 0.43 0.40
0.03 0.02 0.01 0.00 0.00 0.00 0.00 0.00 0.01 0.01 0.01 0.01 0.01 0.02 0.03 0.03 0.01 0.01 0.01 0.02 0.03 0.03 0.03 0.04 0.07 0.10 0.10 0.08 0.08 0.11 0.18 0.24 0.39 0.61 0.60 0.51 0.42 0.36 0.33 0.31 0.31 0.35 0.41
0.03 0.02 0.01 0.01 0.00 0.00 0.01 0.01 0.01 0.01 0.01 0.01 0.02 0.02 0.02 0.02 0.02 0.01 0.01 0.02 0.03 0.04 0.06 0.08 0.10 0.13 0.11 0.11 0.12 0.18 0.26 0.35 0.46 0.59 0.56 0.47 0.38 0.32 0.27 0.24 0.23 0.26 0.31
0.02 0.02 0.01 0.01 0.01 0.00 0.01 0.01 0.01 0.01 0.01 0.01 0.02 0.02 0.02 0.02 0.02 0.01 0.01 0.02 0.04 0.05 0.10 0.16 0.17 0.16 0.16 0.19 0.25 0.33 0.38 0.42 0.48 0.51 0.44 0.38 0.34 0.31 0.26 0.23 0.21 0.22 0.25
0.02 0.02 0.02 0.02 0.01 0.01 0.01 0.01 0.01 0.02 0.02 0.02 0.02 0.02 0.03 0.02 0.03 0.03 0.02 0.03 0.04 0.07 0.11 0.20 0.29 0.29 0.32 0.37 0.42 0.45 0.42 0.45 0.47 0.40 0.31 0.28 0.28 0.28 0.24 0.20 0.19 0.19 0.21
0.02 0.02 0.02 0.02 0.01 0.01 0.01 0.01 0.01 0.01 0.01 0.02 0.02 0.03 0.04 0.04 0.04 0.06 0.07 0.06 0.07 0.10 0.12 0.16 0.22 0.29 0.34 0.39 0.42 0.43 0.40 0.38 0.37 0.30 0.25 0.23 0.25 0.26 0.24 0.20 0.18 0.15 0.18
0.02 0.01 0.01 0.01 0.01 0.01 0.01 0.02 0.01 0.00 0.00 0.01 0.02 0.03 0.03 0.04 0.04 0.04 0.06 0.08 0.10 0.12 0.13 0.19 0.27 0.35 0.41 0.44 0.43 0.41 0.37 0.33 0.30 0.27 0.23 0.19 0.21 0.24 0.24 0.20 0.18 0.17 0.19
0.01 0.01 0.01 0.00 0.00 0.01 0.02 0.03 0.04 0.03 0.01 0.01 0.01 0.02 0.02 0.03 0.03 0.03 0.03 0.05 0.07 0.11 0.12 0.21 0.32 0.40 0.44 0.44 0.40 0.37 0.36 0.32 0.26 0.22 0.19 0.17 0.17 0.19 0.20 0.21 0.20 0.20 0.19
0.01 0.00 0.00 0.00 0.00 0.01 0.01 0.02 0.03 0.05 0.05 0.05 0.03 0.02 0.02 0.03 0.03 0.03 0.03 0.03 0.05 0.08 0.15 0.25 0.35 0.40 0.43 0.42 0.38 0.35 0.33 0.28 0.22 0.18 0.18 0.18 0.17 0.17 0.17 0.18 0.18 0.17 0.16
0.00 0.00 0.00 0.00 0.00 0.00 0.01 0.01 0.02 0.03 0.04 0.04 0.03 0.02 0.03 0.05 0.06 0.07 0.07 0.05 0.07 0.12 0.18 0.24 0.31 0.35 0.38 0.37 0.34 0.28 0.26 0.24 0.20 0.18 0.18 0.19 0.20 0.18 0.16 0.13 0.12 0.11 0.12
0.00 0.00 0.00 0.00 0.00 0.01 0.01 0.01 0.02 0.03 0.04 0.04 0.04 0.03 0.04 0.06 0.07 0.08 0.07 0.06 0.08 0.11 0.17 0.23 0.27 0.27 0.27 0.28 0.26 0.22 0.20 0.20 0.19 0.18 0.19 0.20 0.19 0.17 0.13 0.11 0.10 0.10 0.09
0.00 0.00 0.00 0.00 0.01 0.01 0.00 0.01 0.01 0.02 0.03 0.04 0.04 0.04 0.07 0.08 0.10 0.11 0.11 0.12 0.13 0.15 0.17 0.19 0.20 0.20 0.18 0.17 0.18 0.17 0.15 0.16 0.16 0.18 0.19 0.18 0.16 0.12 0.09 0.07 0.06 0.05 0.04
0.00 0.01 0.01 0.01 0.00 0.00 0.00 0.00 0.00 0.01 0.01 0.02 0.03 0.04 0.07 0.07 0.09 0.12 0.14 0.14 0.15 0.17 0.18 0.18 0.17 0.16 0.16 0.15 0.14 0.14 0.13 0.14 0.14 0.16 0.17 0.15 0.12 0.08 0.05 0.04 0.03 0.02 0.02
0.00 0.00 0.00 0.00 0.00 0.00 0.00 0.00 0.00 0.00 0.01 0.01 0.02 0.03 0.04 0.05 0.09 0.14 0.17 0.16 0.13 0.12 0.12 0.12 0.14 0.14 0.14 0.12 0.12 0.11 0.10 0.11 0.12 0.13 0.16 0.14 0.10 0.06 0.03 0.02 0.02 0.01 0.01
0.00 0.00 0.00 0.00 0.00 0.00 0.00 0.00 0.00 0.00 0.00 0.00 0.01 0.01 0.03 0.04 0.07 0.13 0.16 0.16 0.15 0.13 0.12 0.12 0.12 0.13 0.13 0.12 0.11 0.08 0.05 0.06 0.07 0.10 0.12 0.10 0.06 0.03 0.02 0.02 0.01 0.01 0.01
0.00 0.00 0.00 0.00 0.00 0.00 0.00 0.00 0.00 0.00 0.00 0.00 0.00 0.01 0.01 0.02 0.03 0.07 0.10 0.13 0.14 0.15 0.14 0.11 0.09 0.09 0.08 0.07 0.05 0.04 0.05 0.05 0.05 0.06 0.10 0.09 0.05 0.03 0.02 0.01 0.01 0.01 0.01
0.00 0.00 0.00 0.00 0.00 0.00 0.00 0.00 0.00 0.00 0.00 0.00 0.00 0.00 0.00 0.01 0.01 0.02 0.04 0.06 0.09 0.11 0.12 0.11 0.09 0.07 0.04 0.02 0.02 0.03 0.04 0.03 0.02 0.02 0.06 0.10 0.07 0.05 0.04 0.03 0.02 0.02 0.02